Regional Weather Roundup
Issued by NWS

Home | Current Version | Previous Version | Text Only | Print | Product List | Glossary Off
Versions: 1 2 3 4 5 6 7 8 9 10 11 12 13 14 15 16 17 18 19 20 21 22 23 24 25 26 27

000
ASUS45 KBOI 220310
RWRID
WEATHER ROUNDUP FOR IDAHO
NATIONAL WEATHER SERVICE BOISE ID
900 PM MDT TUE OCT 21 2014

NOTE: "FAIR" INDICATES FEW OR NO CLOUDS BELOW 12000 FEET
WITH NO SIGNIFICANT WEATHER AND/OR OBSTRUCTIONS TO VISIBILITY

IDZ012-014-220400-
SOUTHWEST IDAHO


CITY           SKY/WX    TMP DP  RH WIND       PRES   REMARKS
BOISE          CLEAR     50  41  71 SE8       30.05R
CALDWELL       CLEAR     50  32  50 S6        30.06S
MOUNTAIN HOME  CLEAR     48  39  73 E2        30.07R
$$

IDZ016-017-220400-
SOUTHCENTRAL IDAHO


CITY           SKY/WX    TMP DP  RH WIND       PRES   REMARKS
BURLEY         CLEAR     40  34  79 SW8       30.08S WCI  34
JEROME         CLEAR     45  36  70 S5        30.09S
TWIN FALLS     CLEAR     39  32  76 S7        30.10R WCI  34
$$

IDZ019>023-220400-
SOUTHEAST IDAHO


CITY           SKY/WX    TMP DP  RH WIND       PRES   REMARKS
IDAHO FALLS    CLOUDY    48  35  60 S15       30.08R
POCATELLO      CLEAR     43  36  76 S9        30.10R
REXBURG        CLOUDY    45  34  65 SW7       30.07R
$$

IDZ006-010-011-018-031-032-220400-
CENTRAL IDAHO MOUNTAINS


CITY           SKY/WX    TMP DP  RH WIND       PRES   REMARKS
MCCALL         PTCLDY    37  36  96 CALM      30.06S
HAILEY         CLEAR     41  30  65 NW7       30.09R
STANLEY          N/A     36  32  85 CALM      30.11R
SALMON         PTCLDY   N/A N/A N/A MISG        N/A
CHALLIS        PTCLDY    40  35  83 CALM      30.07R
$$

IDZ002-004-006-007-026-220400-
NORTHERN IDAHO


CITY           SKY/WX    TMP DP  RH WIND       PRES   REMARKS
LEWISTON       CLEAR     53  43  68 S7        29.99S
LOWELL           N/A     48  47  96 CALM      30.07S
COEUR D`ALENE  PTCLDY    48  39  71 S7        29.97F
MULLAN PASS    CLOUDY    35  35 100 VRB3      30.00S FOG
$$



USA.gov is the U.S. government's official web portal to all federal, state and local government web resources and services.